{"data":{"norad_id":55170,"intl_designator":"2023-004AG","name":"ONEWEB-0629","alt_names":[],"object_type":"PAYLOAD","status":"ACTIVE","operator":null,"country":"UK","launch_date":"2023-01-10","launch_site_code":"AFETR","launch_vehicle":null,"mission":null,"orbit_class":"UNKNOWN","rcs_meters":null,"size_class":null,"mass_kg":null,"dimensions":null,"purposes":["comms"],"wikipedia_slug":null,"has_3d_model":false,"image_url":null,"decayed_at":null,"tle_current":{"epoch":"2026-09-20T00:29:57.806880Z","epoch_age_seconds":63407,"freshness":"FRESH","line1":"1 55170U 23004AG  26263.02080795  .00000049  00000+0  90390-4 0  9994","line2":"2 55170  87.9201 347.0325 0002160  99.6456 260.4921 13.19250743180074","mean_motion":13.19250743,"eccentricity":0.000216,"inclination_deg":87.9201,"raan_deg":347.0325,"arg_perigee_deg":99.6456,"mean_anomaly_deg":260.4921,"bstar":9.039e-5,"rev_number":18007,"period_min":109.15286632512,"perigee_km":1185.949012204,"apogee_km":1189.2174033337,"semimajor_km":7565.7202077688,"source":"CELESTRAK","updated_at":"2026-09-20T09:00:44.756545Z"}}}